Regional Weather Roundup
Issued by NWS

Home | Current Version | Previous Version | Text Only | Print | Product List | Glossary Off
Versions: 1 2 3 4 5 6 7 8 9 10 11 12 13 14 15 16 17 18 19 20 21 22 23 24 25 26 27 28 29 30 31 32 33 34 35 36 37 38 39 40 41 42 43 44 45 46 47 48 49 50

000
ASUS43 KFSD 270102
RWRSD

WEATHER ROUNDUP FOR SOUTH DAKOTA
NATIONAL WEATHER SERVICE SIOUX FALLS SD
800 PM CDT SUN MAR 26 2017

NOTE: "FAIR" INDICATES FEW OR NO CLOUDS BELOW 12,000 FEET WITH NO
SIGNIFICANT WEATHER AND/OR OBSTRUCTIONS TO VISIBILITY.


SDZ001>005-009-010-012>017-270200-
NORTHWEST AND NORTH CENTRAL SOUTH DAKOTA

CITY           SKY/WX    TMP DP  RH WIND       PRES   REMARKS
BUFFALO          N/A     52  37  56 S12       29.83S
FAITH            N/A     48  39  71 MISG      29.92R
MOBRIDGE       CLOUDY    50  37  61 SE3       29.89S
$$

SDZ012>016-024>037-041>051-057-063-072>074-270200-
SOUTHWEST AND SOUTH CENTRAL SOUTH DAKOTA

CITY           SKY/WX    TMP DP  RH WIND       PRES   REMARKS
RAPID CTY ARPT CLOUDY    43  39  86 NW5       29.93R
PIERRE         CLOUDY    45  38  76 NW7       29.92S
CUSTER         LGT RAIN  37  34  89 CALM      29.92R
ELLSWORTH AFB  CLOUDY    43  42  97 NW5       29.92S
PHILIP         CLOUDY    43  38  82 N5        29.93S
PINE RIDGE     CLEAR     45  39  79 NE6       29.93R
SPEARFISH      FAIR      45  37  76 S7        29.93S
WINNER         FAIR      44  36  73 N6        29.93S
$$

SDZ004>011-016>023-039-040-270200-
NORTHEAST SOUTH DAKOTA

CITY           SKY/WX    TMP DP  RH WIND       PRES   REMARKS
ABERDEEN       CLOUDY    45  35  68 S3        29.94R
WATERTOWN      CLOUDY    42  37  82 CALM      29.92S
BROOKINGS      PTCLDY    41  37  86 CALM      29.92S
SISSETON         N/A     43  38  82 E3        29.93S
$$

SDZ017-020-022-023-036>040-048>070-270200-
SOUTHEAST SOUTH DAKOTA

CITY           SKY/WX    TMP DP  RH WIND       PRES   REMARKS
SIOUX FALLS    CLOUDY    45  39  79 N5        29.93R
HURON          PTCLDY    44  37  76 N3        29.93S
CHAMBERLAIN    CLEAR     45  41  86 NW3       29.94S
MITCHELL       MOCLDY    45  38  76 CALM      29.94R
YANKTON        CLOUDY    48  39  71 CALM      29.93R
$$

ABBREVIATIONS USED IN REMARKS
   TC - TEMPERATURE IN CELSIUS
  WCI - WIND CHILL INDEX
   HX - HEAT INDEX
  VSB - VISIBILITY





USA.gov is the U.S. government's official web portal to all federal, state and local government web resources and services.